EW8046 Weather Reports


time (UTC)temp
F
wind
direction
speed
knots
gust
knots
rain 1hr
in
rain 24hr
in
rain mn
in
humidity
%
barometer
mb
20260505092901 56 164 5.2 10.4 0.00 0.00 0.00 83 1013.6
20260505092402 56 188 4.3 9.6 0.00 0.00 0.00 83 1013.6
20260505091902 56 201 3.5 7.8 0.00 0.00 0.00 82 1013.5
20260505091400 56 200 4.3 8.7 0.00 0.00 0.00 82 1013.4
20260505090901 56 180 4.3 10.4 0.00 0.00 0.00 82 1013.4
20260505090401 56 190 4.3 10.4 0.00 0.00 0.00 82 1013.4
20260505085900 56 152 4.3 8.7 0.00 0.00 0.00 83 1013.4
20260505085402 56 217 5.2 10.4 0.00 0.00 0.00 82 1013.3
20260505083901 56 190 5.2 9.6 0.00 0.00 0.00 82 1013.2
20260505083401 56 145 5.2 9.6 0.00 0.00 0.00 82 1013.1
20260505082900 56 195 4.3 9.6 0.00 0.00 0.00 82 1013.1
20260505082401 56 172 4.3 9.6 0.00 0.00 0.00 82 1013.1
20260505081902 56 207 4.3 10.4 0.00 0.00 0.00 81 1013.1
20260505081401 56 194 4.3 10.4 0.00 0.00 0.00 82 1013.2
20260505080902 56 186 3.5 8.7 0.00 0.00 0.00 81 1013.2
20260505080401 56 168 3.5 9.6 0.00 0.00 0.00 81 1013.2
20260505075900 56 200 3.5 9.6 0.00 0.00 0.00 81 1013.2
20260505075400 56 183 3.5 10.4 0.00 0.00 0.00 81 1013.1
20260505074400 56 147 3.5 9.6 0.00 0.00 0.00 81 1013.0
20260505073901 56 187 4.3 12.2 0.00 0.00 0.00 81 1012.8
20260505073400 57 167 5.2 12.2 0.00 0.00 0.00 81 1012.7
20260505072901 57 171 5.2 12.2 0.00 0.00 0.00 80 1012.6
20260505072400 57 188 6.1 10.4 0.00 0.00 0.00 80 1012.5
20260505071902 57 180 6.1 10.4 0.00 0.00 0.00 80 1012.4
20260505070901 57 197 4.3 9.6 0.00 0.00 0.00 80 1012.4
20260505070401 57 194 4.3 9.6 0.00 0.00 0.00 80 1012.4
20260505065901 57 173 4.3 9.6 0.00 0.00 0.00 79 1012.4
20260505065401 57 172 4.3 9.6 0.00 0.00 0.00 79 1012.3
20260505064902 58 188 4.3 10.4 0.00 0.00 0.00 79 1012.3
20260505064401 58 163 4.3 10.4 0.00 0.00 0.00 79 1012.3
20260505063901 58 178 5.2 12.2 0.00 0.00 0.00 79 1012.2
20260505063355 58 190 6.1 13.9 0.00 0.00 0.00 78 1012.1
20260505062850 58 200 5.2 13.9 0.00 0.00 0.00 78 1012.1
20260505062343 58 180 4.3 8.7 0.00 0.00 0.00 78 1012.1
20260505061342 58 201 4.3 7.8 0.00 0.00 0.00 77 1011.9
20260505060842 58 175 3.5 7.8 0.00 0.00 0.00 77 1011.9
20260505054840 59 179 3.5 10.4 0.00 0.00 0.00 75 1011.7
20260505054338 59 143 3.5 10.4 0.00 0.00 0.00 75 1011.7
20260505053836 60 211 3.5 10.4 0.00 0.00 0.00 74 1011.6
20260505053334 60 167 4.3 10.4 0.00 0.00 0.00 74 1011.5
20260505052834 60 192 4.3 9.6 0.00 0.00 0.00 74 1011.5
20260505052333 60 189 5.2 9.6 0.00 0.00 0.00 73 1011.5
20260505051834 61 190 4.3 9.6 0.00 0.00 0.00 73 1011.5
20260505051334 61 202 3.5 9.6 0.00 0.00 0.00 73 1011.4
20260505050832 61 171 4.3 8.7 0.00 0.00 0.00 72 1011.4
20260505050329 61 184 5.2 8.7 0.00 0.00 0.00 72 1011.3
20260505041316 65 208 5.2 8.7 0.00 0.00 0.00 67 1010.6
20260505040814 65 186 5.2 13.0 0.00 0.00 0.00 66 1010.5
20260505040312 65 197 5.2 13.0 0.00 0.00 0.00 66 1010.4
20260505035812 66 169 6.1 13.0 0.00 0.00 0.00 65 1010.3
20260505035311 66 175 7.0 13.0 0.00 0.00 0.00 64 1010.3
20260505034812 67 182 6.1 12.2 0.00 0.00 0.00 64 1010.2
20260505034312 67 199 5.2 10.4 0.00 0.00 0.00 63 1010.0
20260505033810 68 162 6.1 10.4 0.00 0.00 0.00 63 1010.0
20260505033310 68 187 6.1 10.4 0.00 0.00 0.00 62 1009.9
20260505032311 69 185 6.1 11.3 0.00 0.00 0.00 61 1009.7
20260505031810 70 169 7.0 10.4 0.00 0.00 0.00 60 1009.6
20260505031310 70 186 6.1 10.4 0.00 0.00 0.00 60 1009.6
20260505030303 71 179 7.8 11.3 0.00 0.00 0.00 58 1009.5
20260505025804 72 198 7.0 12.2 0.00 0.00 0.00 57 1009.4
20260505025305 73 178 7.0 12.2 0.00 0.00 0.00 57 1009.3
20260505024802 73 194 7.0 10.4 0.00 0.00 0.00 56 1009.3
20260505023801 74 209 7.0 10.4 0.00 0.00 0.00 53 1009.2
20260505023301 75 187 6.1 10.4 0.00 0.00 0.00 52 1009.1
20260505022301 76 204 6.1 10.4 0.00 0.00 0.00 51 1009.1
20260505021801 76 202 6.1 10.4 0.00 0.00 0.00 50 1009.1
20260505020800 76 179 6.1 9.6 0.00 0.00 0.00 50 1009.1
20260505020301 77 200 6.1 10.4 0.00 0.00 0.00 50 1009.0
20260505015801 77 194 7.0 11.3 0.00 0.00 0.00 50 1009.0
20260505014800 77 200 6.1 11.3 0.00 0.00 0.00 50 1009.0
20260505014301 78 184 6.1 10.4 0.00 0.00 0.00 50 1009.0
20260505013800 78 209 7.0 10.4 0.00 0.00 0.00 50 1009.0
20260505013302 78 202 6.1 9.6 0.00 0.00 0.00 49 1009.1
20260505012801 78 193 6.1 9.6 0.00 0.00 0.00 49 1009.1
20260505012301 78 180 6.1 9.6 0.00 0.00 0.00 49 1009.1
20260505011800 78 188 7.0 10.4 0.00 0.00 0.00 48 1009.1
20260505011301 78 190 6.1 10.4 0.00 0.00 0.00 48 1009.2
20260505010301 78 189 6.1 10.4 0.00 0.00 0.00 48 1009.2
20260505005801 78 201 7.0 10.4 0.00 0.00 0.00 47 1009.2
20260505005301 79 198 5.2 9.6 0.00 0.00 0.00 47 1009.2
20260505004801 79 206 5.2 8.7 0.00 0.00 0.00 47 1009.2
20260505004301 79 206 6.1 11.3 0.00 0.00 0.00 47 1009.3
20260505003801 79 134 6.1 11.3 0.00 0.00 0.00 47 1009.3
20260505003301 79 219 7.0 10.4 0.00 0.00 0.00 47 1009.3
20260505002303 79 192 6.1 10.4 0.00 0.00 0.00 45 1009.3
20260505001801 79 221 6.1 10.4 0.00 0.00 0.00 44 1009.2
20260505001300 79 215 7.0 11.3 0.00 0.00 0.00 44 1009.4
20260505000802 80 0 7.0 11.3 0.00 0.00 0.00 43 1009.3
20260505000301 80 212 6.1 10.4 0.00 0.00 0.00 42 1009.4
20260504235304 80 215 5.2 8.7 0.00 0.00 0.00 42 1009.3
20260504234800 80 221 5.2 8.7 0.00 0.00 0.00 43 1009.4
20260504234301 80 212 5.2 8.7 0.00 0.00 0.00 42 1009.4
20260504233801 80 209 6.1 9.6 0.00 0.00 0.00 43 1009.4
20260504233300 79 181 6.1 10.4 0.00 0.00 0.00 43 1009.4
20260504232801 79 194 6.1 10.4 0.00 0.00 0.00 43 1009.4
20260504232303 79 240 6.1 10.4 0.00 0.00 0.00 44 1009.4
20260504231302 79 200 7.0 11.3 0.00 0.00 0.00 43 1009.4
20260504230801 79 219 7.0 10.4 0.00 0.00 0.00 43 1009.4
20260504230301 80 192 7.0 12.2 0.00 0.00 0.00 41 1009.4
20260504225801 80 207 6.1 12.2 0.00 0.00 0.00 40 1009.5
20260504225301 80 192 5.2 9.6 0.00 0.00 0.00 38 1009.6
20260504224802 80 225 5.2 9.6 0.00 0.00 0.00 37 1009.7
20260504224300 80 241 6.1 9.6 0.00 0.00 0.00 35 1009.8
20260504223801 80 192 6.1 9.6 0.00 0.00 0.00 34 1009.9
20260504223302 80 174 5.2 9.6 0.00 0.00 0.00 36 1010.0
20260504222304 79 200 6.1 9.6 0.00 0.00 0.00 37 1010.1
20260504221802 79 205 6.1 10.4 0.00 0.00 0.00 38 1010.1
20260504221304 80 200 5.2 10.4 0.00 0.00 0.00 38 1010.1
20260504220802 80 186 4.3 8.7 0.00 0.00 0.00 40 1010.1
20260504220301 79 182 5.2 8.7 0.00 0.00 0.00 39 1010.2
20260504215801 79 200 6.1 9.6 0.00 0.00 0.00 39 1010.2
20260504215301 79 227 6.1 9.6 0.00 0.00 0.00 42 1010.2
20260504214801 78 211 6.1 9.6 0.00 0.00 0.00 42 1010.3
20260504214303 78 236 6.1 10.4 0.00 0.00 0.00 43 1010.3
20260504213801 78 243 5.2 10.4 0.00 0.00 0.00 43 1010.4
20260504212801 77 180 6.1 11.3 0.00 0.00 0.00 45 1010.5
20260504212300 77 165 6.1 11.3 0.00 0.00 0.00 46 1010.5
20260504211800 77 204 6.1 10.4 0.00 0.00 0.00 48 1010.5
20260504211301 76 170 5.2 11.3 0.00 0.00 0.00 46 1010.5
20260504210801 76 209 6.1 11.3 0.00 0.00 0.00 49 1010.5
20260504210301 76 195 7.8 11.3 0.00 0.00 0.00 49 1010.6
20260504205300 75 200 7.0 12.2 0.00 0.00 0.00 51 1010.7
20260504204800 75 194 7.0 11.3 0.00 0.00 0.00 51 1010.7
20260504204301 75 207 7.0 11.3 0.00 0.00 0.00 51 1010.7
20260504203804 75 195 7.0 11.3 0.00 0.00 0.00 52 1010.8
20260504203302 75 195 7.0 11.3 0.00 0.00 0.00 52 1010.9
20260504202801 75 195 6.1 11.3 0.00 0.00 0.00 51 1010.8
20260504202300 75 207 6.1 11.3 0.00 0.00 0.00 52 1010.7
20260504201801 75 161 6.1 10.4 0.00 0.00 0.00 53 1010.8
20260504201300 75 188 6.1 10.4 0.00 0.00 0.00 52 1010.7
20260504200801 75 0 5.2 12.2 0.00 0.00 0.00 51 1010.7
20260504200301 75 221 6.1 12.2 0.00 0.00 0.00 53 1010.7
20260504195802 75 180 5.2 11.3 0.00 0.00 0.00 53 1010.7
20260504195301 74 201 6.1 11.3 0.00 0.00 0.00 53 1010.7
20260504193801 74 163 6.1 10.4 0.00 0.00 0.00 55 1010.9
20260504193300 74 175 5.2 9.6 0.00 0.00 0.00 54 1010.9
20260504192800 73 197 6.1 9.6 0.00 0.00 0.00 56 1010.9
20260504192304 73 198 6.1 9.6 0.00 0.00 0.00 55 1010.9
20260504191801 73 201 5.2 9.6 0.00 0.00 0.00 56 1011.0
20260504190801 72 188 6.1 10.4 0.00 0.00 0.00 56 1011.1
20260504190301 73 200 5.2 9.6 0.00 0.00 0.00 56 1011.1
20260504185800 73 185 5.2 9.6 0.00 0.00 0.00 56 1011.2
20260504185302 72 192 6.1 10.4 0.00 0.00 0.00 57 1011.1
20260504184801 72 164 7.0 10.4 0.00 0.00 0.00 55 1011.1
20260504184301 72 205 7.0 10.4 0.00 0.00 0.00 56 1011.1
20260504183801 72 218 6.1 10.4 0.00 0.00 0.00 55 1011.1
20260504183301 72 201 4.3 8.7 0.00 0.00 0.00 56 1011.1
20260504182801 72 220 6.1 9.6 0.00 0.00 0.00 55 1011.1
20260504182300 72 200 5.2 9.6 0.00 0.00 0.00 55 1011.2
20260504181801 72 192 4.3 7.8 0.00 0.00 0.00 56 1011.2
20260504181301 71 268 5.2 10.4 0.00 0.00 0.00 57 1011.2
20260504180802 71 178 5.2 10.4 0.00 0.00 0.00 56 1011.3
20260504180301 70 186 4.3 8.7 0.00 0.00 0.00 57 1011.3
20260504175801 70 196 5.2 7.8 0.00 0.00 0.00 57 1011.3
20260504175301 70 205 5.2 7.8 0.00 0.00 0.00 57 1011.4
20260504174801 69 203 5.2 8.7 0.00 0.00 0.00 57 1011.4
20260504174302 69 222 5.2 8.7 0.00 0.00 0.00 58 1011.4
20260504173801 70 202 4.3 8.7 0.00 0.00 0.00 57 1011.3
20260504173300 70 186 3.5 6.1 0.00 0.00 0.00 57 1011.3
20260504172800 69 200 3.5 6.1 0.00 0.00 0.00 57 1011.3
20260504171801 68 192 3.5 7.0 0.00 0.00 0.00 59 1011.3
20260504171300 67 204 1.7 6.1 0.00 0.00 0.00 61 1011.3
20260504170800 66 219 0.9 5.2 0.00 0.00 0.00 63 1011.3
20260504170300 65 26 0.9 2.6 0.00 0.00 0.00 65 1011.3
20260504160300 60 24 1.7 3.5 0.00 0.00 0.00 71 1011.1
20260504150749 57 212 0.0 0.0 0.00 0.00 0.00 78 1010.8
20260504150248 57 212 0.0 0.0 0.00 0.00 0.00 79 1010.8
20260504141234 54 212 0.0 0.0 0.00 0.00 0.00 79 1010.5
20260504140733 54 212 0.0 0.0 0.00 0.00 0.00 79 1010.4
20260504140230 54 212 0.0 0.0 0.00 0.00 0.00 79 1010.3
20260504130228 54 212 0.0 0.0 0.00 0.00 0.00 77 1009.8
20260504120225 55 212 0.0 0.9 0.00 0.00 0.00 76 1009.8
20260504110712 57 212 0.0 0.0 0.00 0.00 0.00 70 1009.7
20260504100204 58 213 0.0 1.7 0.00 0.00 0.00 67 1009.6